Total_Precipitation_Accumulation
1.40 1.44 1.47 1.40 1.45 1.57 1.70 1.78 1.78 1.73 1.70 1.63 1.35 1.20 1.14 1.17 1.27 1.29 1.41 1.23 0.84 0.66 0.59 0.58 0.60 0.66 0.74 0.88 1.02 1.18 1.32 1.47 1.61 1.78 2.01 2.21 2.38 2.55
1.63 1.71 1.66 1.55 1.59 1.63 1.67 1.81 1.95 1.97 1.82 1.59 1.40 1.27 1.22 1.09 1.13 1.08 1.14 1.01 0.74 0.62 0.55 0.52 0.50 0.51 0.57 0.64 0.72 0.85 0.97 1.15 1.34 1.46 1.59 1.72 1.86 2.00
1.57 1.55 1.52 1.53 1.57 1.47 1.52 1.64 1.82 1.98 1.83 1.67 1.56 1.52 1.49 1.40 1.25 1.03 0.86 0.77 0.68 0.66 0.57 0.52 0.50 0.51 0.50 0.52 0.56 0.64 0.74 0.90 1.07 1.18 1.30 1.48 1.61 1.72
1.61 1.51 1.39 1.44 1.51 1.49 1.57 1.58 1.65 1.88 1.87 1.79 1.75 1.77 1.69 1.52 1.41 1.24 0.98 0.85 0.82 0.78 0.65 0.56 0.49 0.49 0.48 0.48 0.53 0.58 0.66 0.77 0.91 1.01 1.06 1.10 1.24 1.44
1.61 1.49 1.40 1.42 1.44 1.53 1.61 1.59 1.56 1.61 1.77 1.77 1.75 1.84 1.80 1.61 1.47 1.31 1.17 1.20 1.07 0.89 0.71 0.61 0.54 0.49 0.47 0.45 0.52 0.61 0.74 0.76 0.77 0.86 0.96 1.02 1.06 1.12
1.45 1.35 1.36 1.46 1.51 1.52 1.46 1.45 1.47 1.56 1.65 1.68 1.70 1.81 1.86 1.79 1.60 1.45 1.41 1.37 1.25 0.94 0.81 0.69 0.59 0.50 0.45 0.40 0.43 0.56 0.71 0.78 0.84 0.86 0.90 0.96 1.02 1.06
1.32 1.12 1.08 1.27 1.39 1.42 1.30 1.36 1.41 1.45 1.47 1.55 1.62 1.74 1.82 1.94 1.75 1.52 1.44 1.47 1.40 1.25 1.10 0.89 0.75 0.66 0.62 0.58 0.50 0.50 0.56 0.66 0.77 0.91 1.05 1.15 1.20 1.20
1.19 1.11 1.08 1.11 1.09 1.06 1.05 1.07 1.13 1.22 1.37 1.55 1.64 1.67 1.69 1.80 1.86 1.78 1.70 1.64 1.59 1.52 1.56 1.42 1.14 1.06 1.01 0.95 0.80 0.57 0.47 0.53 0.66 0.76 0.99 1.25 1.49 1.56
1.18 1.20 1.00 0.89 0.98 0.98 1.00 0.93 0.86 0.88 0.99 1.22 1.43 1.49 1.61 1.64 1.88 1.90 1.91 1.99 1.95 1.90 1.93 1.90 1.59 1.34 1.14 1.07 0.98 0.73 0.57 0.51 0.58 0.70 0.80 0.99 1.28 1.59
1.17 1.17 1.15 1.09 1.06 1.11 1.13 1.04 0.91 0.85 0.83 0.85 1.05 1.31 1.52 1.75 1.81 1.85 1.93 1.98 1.97 1.85 1.84 1.90 1.77 1.65 1.36 1.07 0.96 0.85 0.71 0.60 0.57 0.65 0.67 0.71 0.84 1.06
1.26 1.23 1.20 1.16 1.15 1.03 1.01 1.01 0.99 0.95 0.79 0.77 0.83 1.01 1.18 1.27 1.48 1.69 1.83 1.78 1.69 1.49 1.38 1.49 1.55 1.60 1.60 1.41 1.08 0.98 0.84 0.70 0.65 0.66 0.64 0.64 0.69 0.76
1.41 1.38 1.24 1.11 1.03 0.90 0.90 1.02 0.98 0.94 0.93 0.85 0.74 0.77 0.87 1.01 1.09 1.19 1.44 1.61 1.51 1.43 1.23 1.17 1.15 1.26 1.38 1.28 1.10 1.03 1.02 0.91 0.76 0.72 0.72 0.71 0.77 0.72
1.50 1.45 1.37 1.20 0.96 0.86 0.81 0.85 0.86 0.87 0.95 0.99 0.97 0.93 1.02 1.13 1.09 1.06 1.18 1.36 1.41 1.26 1.13 1.21 1.15 1.04 1.02 1.01 0.97 0.87 0.91 1.01 0.98 0.87 0.82 0.82 0.87 0.91
1.68 1.61 1.48 1.24 0.98 0.86 0.76 0.71 0.68 0.66 0.74 0.87 0.93 0.91 0.96 1.08 1.14 1.12 1.15 1.20 1.25 1.17 1.13 1.21 1.27 1.18 1.03 0.88 0.82 0.74 0.72 0.80 0.95 1.12 1.21 1.24 1.13 1.08
1.60 1.61 1.34 1.11 0.95 0.80 0.76 0.75 0.68 0.64 0.76 0.83 0.83 0.83 0.84 0.94 1.14 1.27 1.30 1.29 1.25 1.08 0.95 0.98 1.11 1.25 1.23 1.01 0.81 0.72 0.71 0.76 0.89 1.07 1.20 1.31 1.38 1.38
1.35 1.41 1.28 1.10 0.98 0.87 0.82 0.79 0.75 0.77 0.86 0.89 0.90 0.93 0.94 1.00 1.08 1.17 1.26 1.29 1.25 1.05 0.94 0.94 1.00 1.17 1.21 1.04 0.90 0.82 0.80 0.86 0.93 1.12 1.32 1.40 1.43 1.51
1.40 1.43 1.44 1.31 1.18 1.07 1.04 1.06 1.07 1.04 0.97 0.96 0.99 1.01 0.98 0.98 1.03 1.10 1.17 1.20 1.13 0.95 0.82 0.88 0.99 1.14 1.15 1.12 1.04 0.87 0.83 0.82 0.84 0.98 1.20 1.29 1.36 1.44
1.26 1.29 1.40 1.39 1.31 1.23 1.17 1.17 1.15 1.10 1.03 1.03 1.02 1.00 0.98 0.95 0.97 1.02 1.06 1.07 1.04 0.95 0.85 0.81 0.94 1.10 1.16 1.04 0.88 0.81 0.78 0.74 0.79 0.94 1.05 1.05 0.99 1.06
1.08 1.14 1.24 1.29 1.25 1.21 1.16 1.13 1.08 1.09 1.10 1.06 1.02 1.03 1.01 0.96 0.94 0.96 0.98 1.04 1.03 1.01 0.98 0.97 0.97 0.97 0.95 0.81 0.70 0.64 0.72 0.74 0.81 0.87 0.96 0.92 0.84 0.86
0.95 1.02 1.08 1.12 1.13 1.14 1.13 1.11 1.08 1.09 1.08 1.06 1.02 1.01 1.01 0.96 0.96 0.97 0.94 0.96 1.01 1.04 1.05 0.99 0.94 0.89 0.83 0.84 0.82 0.73 0.65 0.80 0.87 0.83 0.82 0.85 0.82 0.76
0.87 0.92 0.93 0.94 0.98 1.01 1.02 1.06 1.06 1.02 1.01 1.05 1.02 0.98 1.00 1.01 1.00 0.99 1.00 1.01 1.01 1.04 1.01 0.88 0.84 0.96 1.08 1.11 0.97 0.83 0.82 0.80 0.91 0.92 0.91 0.93 0.90 0.86
0.83 0.86 0.82 0.81 0.86 0.93 0.98 1.03 1.03 1.04 1.07 1.04 1.01 1.00 0.98 0.99 0.96 0.97 1.00 1.02 1.02 1.02 1.00 1.02 1.07 1.12 1.14 1.05 0.92 0.92 1.01 0.97 0.96 0.96 0.92 0.94 0.90 0.80
0.78 0.74 0.70 0.72 0.78 0.83 0.88 0.91 0.96 1.03 1.02 1.01 1.04 1.01 0.97 0.97 0.96 0.97 0.96 0.97 1.00 1.05 1.12 1.16 1.13 1.08 1.05 1.06 1.00 0.95 0.96 1.02 1.05 1.03 0.93 0.85 0.77 0.70